x

Olcott Harbor, Ny (olcn6) Weather Station

10:00am - Tue 30th Sep 2014 All times are CDT. -5 hours from GMT.

  • Wind
    8mph, 10mph gusts
  • Air Temp 65°f
  • Sea Pressure 1012.9mb
  • Olcott Harbor, Ny
  • Olcott Harbor, Ny

More Historic Weather Station data

Upgrade to MSW Pro to gain access to the past 30 days of data for over 8000 Wavebouys and Weather Stations around the globe.

Join Pro

Comparision Forecast

View Surf forecast
   
Tue 09/30 10:00am 8 10 mph 1012.9mb 65f
9:50am 9 11 mph 1012.9mb 64f
9:40am 10 11 mph 1012.9mb 64f
9:30am 9 11 mph 1012.9mb 64f
9:20am 10 11 mph 1012.9mb 63f
9:10am 10 11 mph 1012.9mb 63f
9:00am 9 10 mph 1012.9mb 62f
8:50am 8
mph
1012.9mb 62f
8:40am 7 10 mph 1012.9mb 62f
8:30am 7 8 mph 1012.9mb 62f
8:20am 7 8 mph 1012.9mb 62f
8:10am 6 7 mph 1012.9mb 62f
8:00am 2 5 mph 1012.9mb 63f
7:50am 3 5 mph 1012.5mb 62f
7:40am 2 5 mph 1012.5mb 62f
7:30am  -  9 mph 1012.5mb 61f
7:20am 7 8 mph 1012.5mb 60f
7:10am 7 8 mph 1012.5mb 60f
7:00am 7 9 mph 1012.5mb 60f
6:50am 7 8 mph 1012.5mb 60f
6:40am 7 9 mph 1012.2mb 60f
6:30am 7 9 mph 1012.5mb 59f
6:20am 8 9 mph 1012.2mb 59f
6:10am 7 8 mph 1012.2mb 59f
6:00am 7 8 mph 1012.2mb 59f
5:50am 7 9 mph 1012.2mb 60f
5:40am 7 9 mph 1012.2mb 60f
5:30am 8 10 mph 1012.2mb 60f
5:20am 7 9 mph 1012.2mb 60f
5:10am 7 9 mph 1012.2mb 60f
5:00am 7 9 mph 1012.2mb 60f
4:50am 7 9 mph 1012.2mb 60f
4:40am 7 9 mph 1011.9mb 60f
4:30am 7 8 mph 1011.9mb 60f
4:20am 5 8 mph 1011.9mb 60f
4:10am 7 9 mph 1011.9mb 60f
4:00am 7 8 mph 1011.9mb 60f
3:50am 7 9 mph 1011.9mb 60f
3:40am 6 9 mph 1011.9mb 60f
3:30am 6 9 mph 1011.9mb 60f
3:20am 6 9 mph 1011.9mb 60f
3:10am 6 8 mph 1011.9mb 60f
3:00am 5 8 mph 1011.9mb 60f
2:50am 5 7 mph 1011.9mb 60f
2:40am 5 8 mph 1011.9mb 60f
2:30am 6 9 mph 1011.9mb 60f
2:20am 7 9 mph 1011.9mb 60f
2:10am 7 9 mph 1011.9mb 60f
2:00am 6 9 mph 1011.9mb 60f
1:50am 6 9 mph 1011.9mb 60f
1:40am 6 9 mph 1011.9mb 60f
1:30am 7 9 mph 1011.9mb 61f
1:20am 7 9 mph 1011.9mb 61f
1:10am 6 9 mph 1011.9mb 61f
1:00am 7 10 mph 1012.2mb 61f
12:50am 7 10 mph 1011.9mb 61f
12:40am 7 9 mph 1011.9mb 61f
12:30am 7 9 mph 1011.9mb 62f
12:20am 7 10 mph 1011.9mb 62f
12:10am 6 9 mph 1011.9mb 62f
12:00am 7 9 mph 1011.9mb 62f
Mon 09/29 11:50pm 7 10 mph 1011.9mb 62f
11:40pm 8 10 mph 1011.9mb 62f
11:30pm 7 10 mph 1011.9mb 62f
11:20pm 8 11 mph 1012.2mb 62f
11:10pm 8 10 mph 1012.2mb 62f
11:00pm 6 8 mph 1012.5mb 62f
10:50pm 7 9 mph 1012.5mb 62f
10:40pm 7 9 mph 1012.5mb 62f
10:30pm 6 9 mph 1012.5mb 62f
10:20pm 6 9 mph 1012.5mb 62f
10:10pm 7 9 mph 1012.5mb 62f
10:00pm 6 7 mph 1012.5mb 62f
9:50pm 6 7 mph 1012.9mb 62f
9:40pm 5 7 mph 1012.5mb 63f
9:30pm 3 7 mph 1012.9mb 63f
9:20pm 6 7 mph 1012.9mb 63f
9:10pm 5
mph
1012.5mb 63f
9:00pm 3 5 mph 1012.5mb 63f
8:50pm 3 5 mph 1012.9mb 64f
8:40pm 3 6 mph 1012.5mb 64f
8:30pm 3 6 mph 1012.5mb 64f
8:20pm 3 7 mph 1012.5mb 65f
8:10pm 5 7 mph 1012.5mb 65f
8:00pm 5 6 mph 1012.5mb 65f
7:50pm 6 7 mph 1012.9mb 65f
7:40pm 5 6 mph 1012.9mb 65f
7:30pm 3 5 mph 1012.9mb 65f
7:20pm 5 6 mph 1012.9mb 66f
7:10pm 3 6 mph 1012.9mb 66f
7:00pm 5 6 mph 1012.9mb 66f
6:50pm 5 7 mph 1012.9mb 66f
6:40pm 5 6 mph 1012.5mb 67f
6:30pm 5
mph
1012.5mb 66f
6:20pm 2
mph
1012.9mb 66f
6:10pm  -  1 mph 1012.9mb 66f
6:00pm 1 3 mph 1012.5mb 66f
5:50pm 5 6 mph 1012.9mb 66f
5:40pm 5
mph
1012.5mb 66f
5:30pm 5
mph
1012.5mb 66f
5:20pm 6
mph
1012.9mb 66f
5:10pm 6 7 mph 1012.9mb 66f
5:00pm 6 7 mph 1012.9mb 66f
4:50pm 6 7 mph 1012.5mb 66f
4:40pm 6 7 mph 1012.9mb 66f
4:30pm 7
mph
1012.9mb 66f
4:20pm 6
mph
1012.9mb 66f
4:10pm 6 7 mph 1012.9mb 65f
4:00pm 6
mph
1012.9mb 64f
3:50pm 6
mph
1012.9mb 64f
3:40pm 5 7 mph 1013.2mb 63f
3:30pm 6 7 mph 1012.9mb 63f
3:20pm 6 7 mph 1013.2mb 62f
3:10pm 6 7 mph 1013.2mb 62f
3:00pm 5 6 mph 1013.2mb 63f
2:50pm 5
mph
1013.5mb 63f
2:40pm 3 5 mph 1013.5mb 63f
2:30pm 3 5 mph 1013.5mb 63f
2:20pm 3 5 mph 1013.9mb 63f
2:10pm 3 5 mph 1013.9mb 63f
2:00pm 3 6 mph 1013.9mb 63f
1:50pm 5 7 mph 1014.2mb 64f
1:40pm 5
mph
1014.2mb 64f
1:30pm 2 5 mph 1014.2mb 63f
1:20pm 3 5 mph 1014.6mb 63f
1:10pm 5 7 mph 1014.6mb 62f
1:00pm 5 7 mph 1014.6mb 62f
12:50pm 7 8 mph 1014.6mb 63f
12:40pm 6 7 mph 1014.9mb 63f
12:30pm 5 8 mph 1014.9mb 63f
12:20pm 3 5 mph 1014.9mb 63f
12:10pm 5 7 mph 1014.9mb 63f
12:00pm 6 7 mph 1015.2mb 64f
11:50am 5 6 mph 1015.2mb 65f
11:40am 6 9 mph 1014.9mb 64f
11:30am 8 9 mph 1015.2mb 63f
11:20am 8 9 mph 1015.2mb 63f
11:10am 7 8 mph 1015.2mb 65f
11:00am 6
mph
1015.2mb 65f
10:50am 1 2 mph 1015.6mb 66f
10:40am 1 6 mph 1015.6mb 64f
10:30am 5 6 mph 1015.6mb 64f
10:20am 5 6 mph 1015.6mb 64f
10:10am 6 7 mph 1015.6mb 64f
10:00am 2 6 mph 1015.9mb 65f
9:50am 5 7 mph 1015.9mb 64f
9:40am 2 6 mph 1016.3mb 64f
9:30am 5 6 mph 1016.3mb 63f
9:20am 3 7 mph 1016.3mb 63f
9:10am 5 7 mph 1016.3mb 62f
9:00am 3 7 mph 1016.6mb 62f
8:50am 5 6 mph 1016.6mb 62f
8:40am 2 6 mph 1016.6mb 61f
8:30am 3 6 mph 1016.6mb 60f
8:20am 5 8 mph 1016.6mb 60f
8:10am 5 8 mph 1016.3mb 59f
8:00am 6 8 mph 1016.6mb 58f
7:50am 7 8 mph 1016.6mb 58f
7:40am 7 8 mph 1016.6mb 58f
7:30am 6 8 mph 1016.6mb 58f
7:20am 6 8 mph 1016.6mb 58f
7:10am 3 7 mph 1016.6mb 58f
7:00am 6 8 mph 1016.6mb 58f
6:50am 5 8 mph 1016.6mb 58f
6:40am 7 8 mph 1016.6mb 58f
6:30am 6 8 mph 1016.6mb 58f
6:20am 6 7 mph 1016.6mb 58f
6:10am 5 7 mph 1016.6mb 58f
6:00am 6 7 mph 1016.6mb 58f
5:50am 2 3 mph 1016.6mb 58f
5:40am 2 3 mph 1016.6mb 58f
5:30am 2 3 mph 1016.6mb 58f
5:20am 2 3 mph 1016.6mb 58f
5:10am  -  3 mph 1016.6mb 58f
5:00am 3 6 mph 1016.6mb 58f
4:50am 3
mph
1016.6mb 58f
4:40am  -  3 mph 1016.9mb 58f
4:30am 2 3 mph 1016.6mb 59f
4:20am 1 6 mph 1016.6mb 59f
4:10am 6 7 mph 1016.6mb 59f
4:00am 6 7 mph 1016.6mb 59f
3:50am 7
mph
1016.3mb 59f
3:40am 5 7 mph 1016.3mb 59f
3:30am 5 7 mph 1016.3mb 58f
3:20am 6 7 mph 1016.3mb 58f
3:10am 6 7 mph 1016.3mb 59f
3:00am 6 7 mph 1016.3mb 59f
2:50am 6 7 mph 1016.3mb 59f
2:40am 6 7 mph 1016.3mb 60f
2:30am 6
mph
1016.6mb 60f
2:20am 3 5 mph 1016.9mb 60f
2:10am 3 5 mph 1016.6mb 60f
2:00am 3 6 mph 1016.9mb 60f
1:50am 3 5 mph 1016.6mb 60f
1:40am 2
mph
1016.6mb 61f
1:30am 2 3 mph 1016.9mb 60f
1:20am 2 5 mph 1016.9mb 60f
1:10am 3 5 mph 1016.9mb 61f
1:00am 1 3 mph 1016.9mb 62f
12:50am 1 5 mph 1016.9mb 63f
12:40am 3 6 mph 1016.9mb 64f
12:30am 3 5 mph 1017.3mb 63f
12:20am 2 3 mph 1016.9mb 64f
12:10am 3 5 mph 1016.9mb 64f
12:00am 3 5 mph 1017.3mb 65f
Sun 09/28 11:50pm 3
mph
1016.9mb 65f
11:40pm  -  5 mph 1017.3mb 65f
11:30pm 2 5 mph 1017.3mb 65f
11:20pm 3 7 mph 1017.3mb 65f
11:10pm 1 6 mph 1017.3mb 64f
11:00pm 6 7 mph 1017.3mb 64f
10:50pm 5 7 mph 1017.6mb 64f
10:40pm 7
mph
1017.6mb 64f
10:30pm 6 7 mph 1017.6mb 64f
10:20pm 6 7 mph 1017.6mb 64f
10:10pm 6 7 mph 1017.6mb 64f
10:00pm 6 7 mph 1017.9mb 64f
9:50pm 6 7 mph 1017.9mb 64f
9:40pm 6 7 mph 1017.9mb 64f
9:30pm 6 7 mph 1017.9mb 64f
9:20pm 6 7 mph 1017.9mb 64f
9:10pm 6 7 mph 1017.9mb 63f
9:00pm 6 7 mph 1017.9mb 64f
8:50pm 6
mph
1017.9mb 64f
8:40pm 6 8 mph 1018.3mb 65f
8:30pm 6 7 mph 1018.3mb 64f
8:20pm 6
mph
1018.3mb 64f
8:10pm 5 6 mph 1018.3mb 64f
8:00pm 5
mph
1018.3mb 63f
7:50pm 2 5 mph 1018.3mb 63f
7:40pm 2 3 mph 1018.3mb 63f
7:30pm 1 2 mph 1018.3mb 64f
7:20pm 2 3 mph 1018.3mb 64f
7:10pm 2
mph
1018.3mb 65f
7:00pm 1 2 mph 1018.3mb 65f
6:50pm  -  2 mph 1018.3mb 65f
6:40pm 2
mph
1018.3mb 65f
6:30pm 1 2 mph 1018.3mb 65f
6:20pm  -  2 mph 1018.3mb 65f
6:10pm  -  2 mph 1018.3mb 65f
6:00pm 2
mph
1018.3mb 65f
5:50pm 2 3 mph 1018.3mb 65f
5:40pm 2 3 mph 1018.3mb 65f
5:30pm 2 3 mph 1018.3mb 65f
5:20pm 2 5 mph 1018.3mb 66f
5:10pm 5
mph
1018.3mb 65f
5:00pm 3
mph
1018.3mb 66f
4:50pm 3
mph
1018.6mb 66f
4:40pm 3 5 mph 1018.6mb 66f
4:30pm 3
mph
1018.6mb 66f
4:20pm 3 5 mph 1018.6mb 65f
4:10pm 3 5 mph 1018.6mb 65f
4:00pm 3
mph
1019mb 65f
3:50pm 3 5 mph 1018.6mb 65f
3:40pm 5
mph
1019mb 65f
3:30pm 5 6 mph 1019mb 65f
3:20pm 6 7 mph 1019mb 65f
3:10pm 6 7 mph 1019mb 65f
3:00pm 7
mph
1019mb 65f
2:50pm 7
mph
1019.3mb 65f
2:40pm 6
mph
1019.6mb 65f
2:30pm 5 6 mph 1019.6mb 65f
2:20pm 6 7 mph 1019.6mb 66f
2:10pm 5 6 mph 1019.6mb 66f
2:00pm 5 7 mph 1020mb 66f
1:50pm 6 7 mph 1020mb 66f
1:40pm 6 7 mph 1020.3mb 66f
1:30pm 5 7 mph 1020.3mb 66f
1:20pm 6 7 mph 1020.7mb 66f
1:10pm 6 7 mph 1020.7mb 66f
1:00pm 6 7 mph 1020.7mb 66f
12:50pm 7 8 mph 1020.7mb 65f
12:40pm 6 7 mph 1021mb 65f
12:30pm 5 6 mph 1021mb 65f
12:20pm 6
mph
1021.3mb 65f
12:10pm 5 6 mph 1021.3mb 65f
12:00pm 6 7 mph 1021.7mb 65f
11:50am 5 6 mph 1021.7mb 65f
11:40am 5
mph
1021.7mb 65f
11:30am 5
mph
1021.7mb 64f
11:20am 5
mph
1021.7mb 65f
11:10am 5 6 mph 1021.7mb 64f
11:00am 5 6 mph 1021.7mb 64f
10:50am 5 7 mph 1021.7mb 64f
10:40am 6 7 mph 1022mb 64f
10:30am 6
mph
1022mb 64f
10:20am 6
mph
1022mb 64f
10:10am 6
mph
1022mb 64f
10:00am 5 6 mph 1022.4mb 63f
9:50am 3 5 mph 1022.4mb 63f
9:40am 2 3 mph 1022.4mb 63f
9:30am 3
mph
1022.4mb 63f
9:20am 2 3 mph 1022.4mb 63f
9:10am 3
mph
1022.7mb 62f
9:00am 3
mph
1022.7mb 62f
8:50am 2 3 mph 1022.7mb 62f
8:40am 2
mph
1022.7mb 62f
8:30am  -  2 mph 1022.7mb 62f
8:20am 1 3 mph 1022.7mb 62f
8:10am 1 3 mph 1022.7mb 62f
8:00am 2 5 mph 1022.7mb 61f
7:50am 2 7 mph 1022.7mb 59f
7:40am 6 7 mph 1022.7mb 58f
7:30am 7 8 mph 1022.7mb 58f
7:20am 7 8 mph 1022.7mb 58f
7:10am 7 8 mph 1022.7mb 57f
7:00am 7 9 mph 1022.7mb 57f
6:50am 9 10 mph 1022.7mb 57f
6:40am 10 11 mph 1022.7mb 56f
6:30am 10
mph
1022.7mb 56f
6:20am 9 10 mph 1022.7mb 56f
6:10am 9 10 mph 1022.7mb 56f
6:00am 8 9 mph 1022.7mb 56f
5:50am 7 8 mph 1022.7mb 56f
5:40am 8 9 mph 1022.7mb 56f
5:30am 8 9 mph 1022.7mb 56f
5:20am 7
mph
1022.7mb 56f
5:10am 7 8 mph 1022.7mb 57f
5:00am 7 9 mph 1022.7mb 56f
4:50am 8
mph
1022.7mb 56f
4:40am 7
mph
1023mb 56f
4:30am 7 8 mph 1022.7mb 56f
4:20am 7 8 mph 1023mb 56f
4:10am 6 7 mph 1023mb 56f
4:00am 6 7 mph 1023mb 56f
3:50am 5
mph
1023mb 54f
3:40am 5 7 mph 1023mb 55f
3:30am 6
mph
1023mb 55f
3:20am 5
mph
1023mb 54f
3:10am 3 6 mph 1023mb 54f
3:00am 5
mph
1023mb 55f
2:50am 3 5 mph 1023mb 56f
2:40am 3 5 mph 1023mb 54f
2:30am 5
mph
1023mb 57f
2:20am 2 3 mph 1023mb 57f
2:10am 2 3 mph 1023mb 58f
2:00am 2 3 mph 1023mb 57f
1:50am 3
mph
1023.4mb 57f
1:40am 3
mph
1023.4mb 56f
1:30am 2 3 mph 1023.4mb 56f
1:20am 2
mph
1023.4mb 56f
1:10am 1 2 mph 1023.4mb 56f
1:00am 2
mph
1023.7mb 56f
12:50am 2
mph
1023.4mb 55f
12:40am  -  1 mph 1023.4mb 56f
12:30am 1 2 mph 1023.4mb 56f
12:20am  -  2 mph 1023mb 56f
12:10am 3 5 mph 1023.4mb 57f
12:00am 5 7 mph 1023.4mb 58f
Sat 09/27 11:50pm 6 8 mph 1023.4mb 58f
11:40pm 7 8 mph 1023.4mb 58f
11:30pm 6 7 mph 1023.4mb 59f
11:20pm 7
mph
1023.4mb 58f
11:10pm 7 8 mph 1023.4mb 59f
11:00pm 8
mph
1023.4mb 59f
10:50pm 7
mph
1023.4mb 58f
10:40pm 6 7 mph 1023.4mb 58f
10:30pm 7
mph
1023.4mb 58f
10:20pm 7
mph
1023.7mb 59f
10:10pm 6 7 mph 1023.7mb 58f
10:00pm 6 7 mph 1023.7mb 58f
9:50pm 6 7 mph 1023.7mb 60f
9:40pm 6
mph
1023.7mb 62f
9:30pm 3 5 mph 1023.4mb 59f
9:20pm 3
mph
1023.4mb 60f
9:10pm 2 5 mph 1023.4mb 60f
9:00pm 3
mph
1023.4mb 59f
8:50pm 2 5 mph 1023.4mb 60f
8:00pm 2 6 mph 1023.4mb 63f
7:50pm 5 6 mph 1023.4mb 61f
7:40pm 3 5 mph 1023.7mb 62f
7:30pm 5
mph
1023.7mb 64f
7:20pm 5
mph
1023.4mb 62f
7:10pm 3 5 mph 1023.4mb 63f
7:00pm 3
mph
1023.4mb 63f
6:50pm 3 5 mph 1023.4mb 63f
6:40pm 3
mph
1023.4mb 64f
6:30pm 3
mph
1023.4mb 64f
6:20pm 1 2 mph 1023.4mb 65f
6:10pm  -  1 mph 1023mb 66f
6:00pm  -  1 mph 1023.4mb 68f
5:50pm  -  1 mph 1023.4mb 70f
5:40pm  -  2 mph 1023.4mb 70f
5:30pm 2 3 mph 1023.7mb 68f
5:20pm 3 5 mph 1023.7mb 68f
5:10pm 5 6 mph 1023.7mb 68f
5:00pm 6 7 mph 1023.7mb 67f
4:50pm 6 7 mph 1023.7mb 67f
4:40pm 3 5 mph 1023.7mb 67f
4:30pm 5
mph
1024mb 67f
4:20pm 2
mph
1024mb 67f
4:10pm 2 3 mph 1024mb 67f
4:00pm 3
mph
1024mb 67f
3:50pm 2 3 mph 1024.4mb 66f
3:40pm 2 3 mph 1024.4mb 66f
3:30pm 2 3 mph 1024.4mb 66f
3:20pm 2
mph
1024.4mb 67f
3:10pm 2 3 mph 1024.7mb 66f
3:00pm 2
mph
1024.7mb 66f
2:50pm 2 3 mph 1025.1mb 66f
2:40pm 3
mph
1025.1mb 65f
2:30pm 3
mph
1025.4mb 65f
2:20pm 3 5 mph 1025.4mb 65f
2:10pm 3
mph
1025.4mb 65f
2:00pm 2
mph
1025.4mb 65f
1:50pm 2 3 mph 1025.4mb 65f
1:40pm 2 3 mph 1025.4mb 65f
1:30pm 2 3 mph 1025.7mb 65f
1:20pm 3
mph
1025.7mb 65f
1:10pm 3
mph
1025.7mb 64f
1:00pm 3
mph
1026.1mb 64f
12:50pm 3
mph
1025.7mb 64f
12:40pm 3
mph
1026.1mb 64f
12:30pm 2 3 mph 1026.1mb 64f
12:20pm 3
mph
1026.4mb 64f
12:10pm 3
mph
1026.4mb 64f
12:00pm 3 5 mph 1026.4mb 64f
11:50am 3 5 mph 1026.4mb 64f
11:40am 3
mph
1026.8mb 64f
11:30am 3
mph
1026.8mb 64f
11:20am 2 3 mph 1026.8mb 64f
11:10am 2
mph
1026.8mb 65f
11:00am 2 3 mph 1026.8mb 64f
10:50am 2
mph
1027.1mb 64f
10:40am 2
mph
1027.1mb 64f
10:30am 2
mph
1027.1mb 63f
10:20am 2
mph
1027.1mb 63f
10:10am 2 3 mph 1027.1mb 63f
10:00am 3
mph
1027.1mb 62f
9:50am 3
mph
1027.1mb 62f
9:40am 3
mph
1027.1mb 62f
9:30am 3 5 mph 1027.1mb 62f
9:20am 5
mph
1027.1mb 62f
9:10am 5 6 mph 1027.1mb 62f
9:00am 6 7 mph 1027.1mb 61f
8:50am 6 7 mph 1027.1mb 61f
8:40am 6
mph
1027.1mb 61f
8:30am 5 6 mph 1027.1mb 61f
8:20am 6 8 mph 1027.1mb 61f
8:10am 6 7 mph 1027.1mb 61f
8:00am 6 7 mph 1027.1mb 60f
7:50am 3
mph
1027.1mb 60f
7:40am 2 6 mph 1027.1mb 59f
7:30am 5 6 mph 1027.1mb 58f
7:20am 2 3 mph 1027.1mb 57f
7:10am 3 5 mph 1027.1mb 56f
7:00am 3 5 mph 1027.1mb 56f
6:50am 3 6 mph 1027.1mb 55f
6:40am 5 6 mph 1027.1mb 55f
6:30am 3
mph
1026.8mb 54f
6:20am 3
mph
1026.8mb 54f
6:10am 3 5 mph 1026.8mb 54f
6:00am 2 3 mph 1026.8mb 54f
5:50am 3 7 mph 1026.8mb 54f
5:40am 6
mph
1026.8mb 54f
5:30am 6 7 mph 1026.4mb 54f
5:20am 6 7 mph 1026.4mb 54f
5:10am 7 8 mph 1026.4mb 54f
5:00am 6 8 mph 1026.4mb 53f
4:50am 6 8 mph 1026.1mb 53f
4:40am 6 7 mph 1026.4mb 53f
4:30am 7
mph
1026.4mb 53f
4:20am 5
mph
1026.4mb 56f
4:10am 3 5 mph 1026.1mb 56f
4:00am 3 5 mph 1026.1mb 56f
3:50am 3 5 mph 1026.1mb 56f
3:40am 3 5 mph 1026.1mb 56f
3:30am 5 6 mph 1026.1mb 55f
3:20am 5 6 mph 1026.1mb 56f
3:10am 5
mph
1026.1mb 56f
3:00am 3 5 mph 1025.7mb 56f
2:50am 3 5 mph 1025.7mb 56f
2:40am 5
mph
1025.7mb 56f
2:30am 5 6 mph 1025.7mb 56f
2:20am 5
mph
1025.7mb 56f
2:10am 5 6 mph 1025.7mb 56f
2:00am 5 6 mph 1025.7mb 56f
1:50am 5 6 mph 1025.7mb 56f
1:40am 6
mph
1025.7mb 56f
1:30am 6
mph
1025.7mb 56f
1:20am 6 7 mph 1025.7mb 56f
1:10am 6 7 mph 1026.1mb 56f
1:00am 5 6 mph 1026.1mb 59f
12:50am 3 6 mph 1025.7mb 59f
12:40am 5 6 mph 1025.7mb 57f
12:30am 5 6 mph 1025.7mb 58f
12:20am 6
mph
1025.7mb 57f
12:10am 5 6 mph 1025.7mb 57f
12:00am 5 6 mph 1025.7mb 57f
Fri 09/26 11:50pm 5 6 mph 1025.7mb 57f
11:40pm 5
mph
1025.7mb 58f
11:30pm 5
mph
1026.1mb 58f
11:20pm 2 5 mph 1026.1mb 59f
11:10pm 2 3 mph 1026.1mb 58f
11:00pm 1 3 mph 1026.1mb 58f
10:50pm 2 3 mph 1026.1mb 58f
10:40pm 2 3 mph 1026.1mb 58f
10:30pm 1 2 mph 1026.1mb 59f
10:20pm 2
mph
1026.1mb 60f
10:10pm 2
mph
1026.1mb 60f
10:00pm 2
mph
1026.1mb 60f
9:50pm 2 3 mph 1026.1mb 60f
9:40pm 1 3 mph 1026.1mb 61f
9:30pm 2 3 mph 1025.7mb 60f
9:20pm 3 5 mph 1025.7mb 60f
9:10pm 3 5 mph 1025.7mb 59f
9:00pm 3
mph
1025.7mb 59f
8:50pm 3 5 mph 1025.7mb 59f
8:40pm 3 5 mph 1025.7mb 60f
8:30pm 3
mph
1025.7mb 60f
8:20pm 3
mph
1025.4mb 60f
8:10pm 3 5 mph 1025.4mb 60f
8:00pm 3
mph
1025.4mb 61f
7:50pm 3
mph
1025.4mb 61f
7:40pm 3
mph
1025.4mb 62f
7:30pm 2 3 mph 1025.4mb 62f
7:20pm 1 2 mph 1025.4mb 63f
7:10pm 1 2 mph 1025.1mb 63f
7:00pm 1 2 mph 1025.1mb 63f
6:50pm 1 2 mph 1025.1mb 64f
6:40pm 1 2 mph 1025.1mb 64f
6:30pm  -  1 mph 1024.7mb 64f
6:20pm  -  1 mph 1024.7mb 65f
6:10pm  -  mph 1024.7mb 66f
6:00pm  -  mph 1024.7mb 69f
5:50pm  -  mph 1024.7mb 71f
5:40pm  -  mph 1024.7mb 70f
5:30pm  -  1 mph 1024.7mb 68f
5:20pm 1 2 mph 1024.7mb 67f
5:10pm 1 2 mph 1024.7mb 67f
5:00pm 2
mph
1024.7mb 67f
4:50pm 1
mph
1024.7mb 68f
4:40pm  -  2 mph 1024.7mb 67f
4:30pm 2
mph
1025.1mb 67f
4:20pm 1 2 mph 1025.1mb 67f